Location: Heidgraben
(53.7081°N, 9.6576°E)
Time: 01:36:29
(UTC+00:00)

Cosmos 2219 Rocket - Visible Passes

Search period start: 24 October 2020 00:00
Search period end: 03 November 2020 00:00
Orbit: 827 x 847 km, 71.0° (Epoch: 23 October)

Date Brightness Start Highest point End Pass type
(mag) Time Alt. Az. Time Alt. Az. Time Alt. Az.
24 Oct 4.8 00:47:15 15° NNE 00:47:15 15° NNE 00:48:23 10° NNE visible
24 Oct 4.4 02:28:58 15° NNW 02:29:24 15° N 02:32:31 10° NNE visible
24 Oct 4.5 04:12:26 10° NNW 04:15:51 16° NNE 04:19:15 10° NE visible
25 Oct 4.9 00:31:16 13° NNE 00:31:16 13° NNE 00:32:00 10° NNE visible
25 Oct 4.4 02:12:59 15° NNW 02:12:59 15° NNW 02:16:04 10° NNE visible
25 Oct 4.5 03:56:02 10° NNW 03:59:21 16° NNE 04:02:41 10° NE visible
26 Oct 5.1 00:15:18 11° NNE 00:15:18 11° NNE 00:15:37 10° NNE visible
26 Oct 4.5 01:57:01 15° N 01:57:01 15° N 01:59:38 10° NNE visible
26 Oct 4.5 03:39:36 10° NNW 03:42:52 15° NNE 03:46:07 10° NE visible
26 Oct 3.7 05:23:36 10° NNW 05:28:41 32° NE 05:33:43 10° ESE visible
27 Oct 4.6 01:41:03 15° N 01:41:03 15° N 01:43:13 10° NNE visible
27 Oct 4.5 03:23:11 10° NNW 03:26:23 15° NNE 03:29:34 10° NE visible
27 Oct 3.8 05:07:13 10° NNW 05:12:14 31° NE 05:17:13 10° E visible
28 Oct 4.7 01:25:06 14° N 01:25:06 14° N 01:26:47 10° NNE visible
28 Oct 4.6 03:06:49 10° NNW 03:09:53 15° NNE 03:13:00 10° NE visible
28 Oct 3.8 04:50:50 10° NNW 04:55:47 30° NE 05:00:42 10° E visible
29 Oct 4.8 01:09:09 13° N 01:09:09 13° N 01:10:22 10° NNE visible
29 Oct 4.5 02:50:52 11° NNW 02:53:23 15° N 02:56:28 10° NE visible
29 Oct 3.9 04:34:27 10° NNW 04:39:20 29° NE 04:44:11 10° E visible
30 Oct 5.0 00:53:13 12° NNE 00:53:13 12° NNE 00:53:57 10° NNE visible
30 Oct 4.5 02:34:57 12° NNW 02:36:53 14° N 02:39:55 10° NE visible
30 Oct 3.9 04:18:04 10° NNW 04:22:53 28° NE 04:27:40 10° E visible
31 Oct 5.1 00:37:19 11° NNE 00:37:19 11° NNE 00:37:32 10° NNE visible
31 Oct 4.6 02:19:03 13° N 02:20:24 14° N 02:23:22 10° NE visible
31 Oct 4.0 04:01:40 10° NNW 04:06:25 27° NE 04:11:08 10° E visible
01 Nov 4.6 02:03:09 14° N 02:03:54 14° N 02:06:49 10° NE visible
01 Nov 4.0 03:45:16 10° NNW 03:49:57 26° NE 03:54:37 10° E visible
01 Nov 2.3 05:29:04 10° NNW 05:34:46 84° ENE 05:40:23 10° SSE visible
02 Nov 4.7 01:47:18 14° N 01:47:24 14° N 01:50:17 10° NE visible
02 Nov 4.1 03:29:02 11° NNW 03:33:30 25° NNE 03:38:05 10° E visible
02 Nov 2.3 05:12:40 10° NNW 05:18:22 79° ENE 05:23:59 10° SE visible
